Location: Hurstbourne Priors
(51.2000°N, 1.3667°W)
Time: 19:28:05
(UTC+00:00)

Transit 4A - Pass Details

Date: 19 April 2021
Orbit: 870 x 974 km, 66.8° (Epoch: 09 May)

Event Time Altitude Azimuth Distance (km) Brightness Sun altitude
Rises 23:06:56 0° 189° (S) 3,626 - -26.1°
Reaches altitude 10° 23:09:38 10° 183° (S) 2,672 - -26.2°
Maximum altitude 23:15:23 41° 115° (ESE) 1,337 - -26.4°
Exits shadow 23:16:09 39° 97° (E) 1,370 8.6 -26.4°
Drops below altitude 10° 23:21:01 10° 48° (NE) 2,621 10.6 -26.6°
Sets 23:23:38 0° 41° (NE) 3,551 11.4 -26.7°
